Location: Holtensen
(51.8118°N, 9.7997°E)
Time: 05:09:41
(UTC+00:00)

Daily predictions for brighter satellites

Satellite Brightness Start Highest point End
(mag) Time Altitude Azimuth Time Altitude Azimuth Time Altitude Azimuth
Cosmos 1980 Rocket 4.2 01:10:32 24° NNE 01:10:32 24° NNE 01:12:39 10° NNE
ATLAS 3B R/B 4.1 01:11:14 30° N 01:11:35 31° N 01:17:28 10° ENE
CENTAUR R/B 4.1 01:23:40 31° NNW 01:26:04 38° NNE 01:33:42 10° E
Resurs 1-4 Rocket 4.2 01:24:45 10° NNE 01:26:36 22° NNE 01:26:36 22° NNE
USA 238 DEB 4.5 01:31:48 48° NNE 01:32:31 50° NNE 01:39:36 10° ESE
USA 238 4.5 01:31:52 48° N 01:32:37 49° NNE 01:39:41 10° ESE
Lacrosse 4 Rocket 4.3 01:56:09 15° NE 01:56:09 15° NE 01:56:51 10° NE
CZ-2D R/B 4.0 01:52:58 10° N 01:54:53 23° N 01:54:53 23° N
NOSS 3-2 (A) 4.4 01:56:41 38° NNW 01:59:27 57° NE 02:07:25 10° ESE
SL-16 R/B 3.1 02:02:37 46° NE 02:02:37 46° NE 02:06:34 10° NNE
Cosmos 1697 Rocket 4.4 02:04:01 25° N 02:04:01 25° N 02:07:01 10° NNE
ADEOS II 3.3 01:58:43 10° NNE 02:02:01 39° NNE 02:02:01 39° NNE
USA 267 3.5 02:05:39 10° ENE 02:11:54 59° SE 02:11:54 59° SE
NOSS 3-2 (C) 4.5 02:17:10 27° NW 02:21:17 55° NNE 02:29:14 10° ESE
ARIANE 5 R/B 3.6 02:16:48 10° NNE 02:19:49 37° NNE 02:19:49 37° NNE
COSMOS 2455 4.0 02:27:14 33° SE 02:28:42 37° ESE 02:34:11 10° NE
Cosmos 2322 Rocket 2.4 02:34:29 61° N 02:34:29 61° N 02:39:11 10° NNE
USA 229 DEB 4.2 02:33:32 44° NW 02:34:01 44° NNW 02:40:46 10° NE
USA 229 4.2 02:33:39 44° NW 02:34:06 45° NNW 02:40:51 10° NE
NOSS 3-1 (A) 3.8 02:38:10 52° NNW 02:38:10 52° NNW 02:44:55 10° NE
Meteor 1-23 Rocket 4.2 02:40:22 79° E 02:40:22 79° E 02:45:56 10° NNE
IDEFIX/ARIANE 42P 3.8 02:35:56 10° NNE 02:40:52 39° E 02:44:01 20° SSE
ATLAS 5 CENTAUR R/B 3.8 02:43:37 30° NNW 02:44:54 35° NNE 02:54:48 10° E
Cosmos 2360 Rocket 2.2 02:45:05 72° SE 02:45:22 74° ESE 02:51:02 10° NNE
USA 234 3.4 02:41:58 10° SE 02:47:40 54° SSW 02:47:40 54° SSW
Cosmos 1980 Rocket 3.6 02:52:18 25° NNW 02:52:18 25° NNW 02:56:23 10° NNE
Meteor 2-21 4.4 02:52:08 56° S 02:53:35 89° ESE 02:59:50 10° N
Cosmos 1992 Rocket 3.9 02:50:59 10° NNW 02:56:14 82° ENE 03:01:27 10° SSE
NOSS 3-1 (C) 4.3 02:55:45 36° NW 02:56:49 39° NNW 03:03:24 10° NE
Cosmos 1066 Rocket 4.1 02:57:48 65° S 02:58:38 84° E 03:04:11 10° NNE
ATLAS 3B R/B 3.2 02:58:31 17° NW 03:03:37 56° NE 03:10:17 10° ESE
Cosmos 2251 Rocket 3.9 03:04:48 36° S 03:06:51 62° ESE 03:12:11 10° NNE
Resurs 1-4 Rocket 4.0 03:05:41 10° N 03:07:40 16° NNW 03:07:40 16° NNW
Spot 2 4.2 03:05:18 10° NNE 03:09:21 63° ESE 03:09:37 61° SE
Meteor 1-22 Rocket 4.0 03:06:51 10° NNW 03:12:19 88° W 03:17:37 10° S
Cosmos 2098 Rocket 4.3 03:09:04 34° SSW 03:12:37 73° WNW 03:20:03 10° N
Cosmos 1709 Rocket 4.0 03:09:43 18° S 03:14:35 83° E 03:20:59 10° NNE
Cosmos 1809 Rocket 4.4 03:13:48 53° WSW 03:14:55 62° WNW 03:21:03 10° N
Cosmos 292 Rocket 4.4 03:11:46 10° NNW 03:16:29 55° ENE 03:21:12 10° SE
CENTAUR R/B 3.3 03:10:52 13° NW 03:18:02 72° NE 03:26:37 10° SE
Cosmos 2278 Rocket 2.6 03:13:43 10° NNW 03:19:24 65° NE 03:25:02 10° SE
Cosmos 44 3.6 03:18:49 30° NNW 03:20:44 55° NE 03:25:00 10° ESE
Cosmos 2333 Rocket 2.9 03:17:32 17° S 03:21:45 53° ESE 03:27:18 10° NE
ATLAS 2AS CENTAUR R/B 4.2 03:15:51 10° S 03:23:08 41° ESE 03:30:30 10° NE
Cosmos 1844 4.0 03:24:00 46° SW 03:24:00 46° SW 03:28:47 10° S
USA 238 DEB 3.7 03:19:19 24° NW 03:23:51 65° SW 03:31:08 10° SSE
USA 238 3.7 03:19:24 24° NW 03:23:57 66° SW 03:31:14 10° SSE
Cosmos 405 4.4 03:28:11 28° N 03:28:11 28° N 03:30:02 10° N
Cosmos 1975 Rocket 3.6 03:32:11 43° NW 03:32:11 43° NW 03:35:52 10° N
Lacrosse 4 Rocket 3.2 03:32:28 19° NNW 03:32:28 19° NNW 03:34:59 10° NNE
Cosmos 1953 4.1 03:30:06 10° N 03:33:50 34° ENE 03:37:31 10° SE
Meteor 2-21 Rocket 4.4 03:30:55 30° SW 03:34:03 63° WNW 03:40:14 10° N
ADEOS 3.5 03:29:22 10° NNE 03:34:37 85° WNW 03:38:16 20° SSW
Gblst 52 Del rocket 4.1 03:33:03 45° W 03:34:51 89° S 03:40:39 10° E
SL-08 ROCKET BODY 4.4 03:33:02 37° SW 03:35:07 56° WNW 03:41:01 10° N
CZ-2D R/B 4.2 03:35:06 10° NNW 03:36:12 12° NW 03:36:12 12° NW
Cosmos 2333 4.1 03:34:25 29° SSW 03:37:28 89° ESE 03:43:10 10° NNE
Cosmos 1758 3.7 03:36:00 10° N 03:39:58 63° ENE 03:43:57 10° SSE
Cosmos 1745 Rocket 4.4 03:40:15 36° W 03:41:36 40° WNW 03:47:29 10° N
COSMO-SKYMED 1 4.1 03:38:56 10° SE 03:42:56 37° ENE 03:46:56 10° N
ADEOS II 3.3 03:39:07 10° N 03:42:57 24° NW 03:42:57 24° NW
Okean 2 3.5 03:43:41 50° WNW 03:43:42 50° WNW 03:47:45 10° N
BREEZE-M R/B 4.3 03:42:48 33° SW 03:45:13 63° SSE 03:55:20 10° E
SL-16 R/B 3.2 03:44:29 27° WNW 03:45:33 28° NW 03:50:28 10° NNE
Cosmos 1378 3.0 03:46:03 49° SW 03:46:55 70° WNW 03:50:41 10° N
Cosmos 2322 3.7 03:44:04 31° SW 03:46:55 69° WNW 03:52:41 10° NNE
Cosmos 2074 Rocket 4.4 03:44:20 10° S 03:50:31 67° E 03:56:42 10° NNE
NOSS 3-2 (A) 4.1 03:44:08 14° NW 03:50:36 57° SW 03:58:41 10° SSE
Cosmos 2181 Rocket 4.0 03:45:20 10° NNW 03:51:36 58° W 03:57:44 10° S
H-2A R/B 2.3 03:48:35 10° NNE 03:52:40 83° WNW 03:56:28 13° SSW
USA 267 3.3 03:48:46 10° ENE 03:55:18 71° NNW 03:59:15 26° W
USA 32 4.1 03:50:14 10° S 03:55:27 83° E 04:00:44 10° N
COSMOS 2441 4.3 03:51:41 10° NNE 03:56:39 85° WNW 04:01:33 10° SSW
NOSS 2-2 (E) 3.4 03:56:51 29° SW 03:58:42 78° SE 04:03:10 10° NE
Cosmos 2219 Rocket 2.1 03:53:56 14° SSW 03:58:45 89° WNW 04:04:24 10° NNE
ARIANE 5 R/B 4.0 03:57:02 10° NNW 04:00:09 18° NW 04:00:09 18° NW
SJ-6F 4.4 03:57:09 10° NNE 04:01:23 86° ESE 04:05:32 10° SSW
PSLV R/B 3.8 03:58:53 10° N 04:02:57 44° WNW 04:04:42 28° WSW
Cosmos 2237 Rocket 3.3 03:58:53 10° S 04:04:17 46° ESE 04:09:43 10° NE
Meteor 1-31 Rocket 2.9 04:03:49 10° NNE 04:07:39 75° ESE 04:11:27 10° S
Cosmos 2228 3.7 04:03:55 10° N 04:08:09 56° ENE 04:12:19 10° SSE
ERBS 4.3 04:06:34 10° SSW 04:09:23 25° SE 04:12:13 10° ENE
Cosmos 1025 Rocket 2.9 04:06:36 10° SSW 04:10:49 63° WNW 04:15:05 10° N
NOSS 8 (F) 4.1 04:11:14 36° WSW 04:12:20 70° NW 04:15:32 10° NE
NOSS 3-2 (C) 4.1 04:05:15 10° NW 04:12:32 60° SW 04:20:40 10° SSE
COSMOS 2428 2.6 04:07:24 12° SW 04:12:39 74° WNW 04:18:21 10° NNE
Cosmos 489 Rocket 4.4 04:07:13 10° NNW 04:13:23 65° WSW 04:19:33 10° S
COSMOS 2455 3.0 04:10:26 21° WSW 04:14:28 56° NW 04:20:26 10° NE
CZ-2C R/B 2.5 04:10:56 10° NNE 04:16:10 81° WNW 04:21:20 10° SSW
Cosmos 1470 2.8 04:12:31 10° NNW 04:16:23 55° W 04:20:12 10° S
Cosmos 2369 Rocket 4.1 04:12:21 10° NNW 04:17:03 27° NE 04:21:44 10° E
Cosmos 2322 Rocket 3.6 04:16:19 18° WNW 04:18:32 22° NW 04:22:51 10° NNE
COBE Rocket 4.1 04:13:41 10° SSE 04:18:42 80° ENE 04:23:53 10° N
Cosmos 1733 4.1 04:16:05 10° NNW 04:19:21 26° W 04:22:34 10° SSW
Cosmos 921 Rocket 3.4 04:15:23 10° NW 04:19:27 39° WSW 04:23:25 10° S
Meteor PRIRODA 4.0 04:16:29 10° NNE 04:20:15 69° ESE 04:23:59 10° S
IDEFIX/ARIANE 42P 3.1 04:15:37 10° N 04:20:28 38° WNW 04:24:49 12° SW
Cosmos 1980 4.2 04:15:04 10° SSW 04:20:38 64° ESE 04:26:15 10° NE
Cosmos 389 Rocket 2.7 04:19:11 10° S 04:22:35 68° E 04:26:01 10° NNE
Cosmos 1536 Rocket 3.8 04:18:41 10° SW 04:22:49 43° WNW 04:26:59 10° N
Cosmos 1842 3.8 04:21:09 16° SW 04:23:49 36° WNW 04:27:30 10° N
Cosmos 1484 Rocket 3.5 04:21:36 10° NNE 04:25:18 54° E 04:29:02 10° S
Cosmos 1707 2.8 04:21:59 10° S 04:25:53 85° E 04:29:51 10° NNE
Cosmos 2360 Rocket 3.2 04:26:53 18° W 04:29:56 28° NW 04:34:49 10° NNE
SKYMED 2 3.5 04:26:30 10° SSE 04:30:51 82° WSW 04:35:13 10° NNW
NOSS 3-4 (A) 4.1 04:27:04 10° SSW 04:32:58 58° SE 04:39:17 10° NE
NOSS 3-4 (C) 4.1 04:27:09 10° SSW 04:33:03 58° SE 04:39:23 10° NE
PAYLOAD A 4.1 04:30:53 10° N 04:35:27 47° WNW 04:40:08 10° SW
NOSS 2-2 (D) 3.4 04:33:19 14° WSW 04:36:25 67° NW 04:40:55 10° NE
GP-B 3.2 04:32:54 10° S 04:37:20 84° E 04:41:49 10° N
Cosmos 1980 Rocket 4.3 04:35:47 10° NW 04:37:52 12° NNW 04:39:56 10° N
Cosmos 1140 Rocket 4.0 04:35:21 10° S 04:40:29 65° ESE 04:45:37 10° NNE
ALOS 3.4 04:36:29 10° NNE 04:41:02 49° E 04:45:33 10° S
Cosmos 1892 Rocket 4.2 04:36:54 10° S 04:41:17 62° E 04:45:39 10° NNE
Meteor 2-10 4.1 04:38:10 10° NNW 04:43:19 85° ENE 04:48:36 10° SSE
CZ-4B R/B 3.1 04:40:04 10° N 04:44:08 50° WNW 04:47:58 10° SW
Meteor 1-16 Rocket 4.0 04:43:10 10° NNW 04:48:28 73° W 04:53:47 10° S
Cosmos 614 Rocket 4.0 04:44:45 10° SSW 04:49:59 79° WNW 04:55:14 10° NNE
Cosmos 2154 Rocket 4.0 04:44:03 10° SSW 04:50:15 79° W 04:56:30 10° N
Aureole 1 Rocket 4.2 04:46:09 10° SW 04:51:57 38° WNW 04:56:29 10° NNE
Cosmos 1606 Rocket 3.7 04:47:53 10° NNW 04:52:04 48° W 04:56:12 10° SSW
Cosmos 1356 3.4 04:50:13 10° NNW 04:53:40 64° W 04:57:05 10° S
Cosmos 2327 Rocket 4.5 04:48:05 10° SSW 04:54:16 63° WNW 05:00:25 10° N
ATLAS 3B R/B 2.9 04:47:55 10° NW 04:54:17 48° WSW 05:00:47 10° SSE
SL-16 R/B 3.5 04:49:51 10° S 04:55:12 45° ESE 05:00:36 10° NE
Cosmos 44 Rocket 3.3 04:51:07 10° NW 04:55:54 83° NE 05:00:36 10° SE
Cosmos 2297 3.7 04:54:48 10° NNW 05:00:34 74° WSW 05:06:17 10° SSE
Cosmos 2184 Rocket 4.3 04:54:38 10° SW 05:00:34 46° WNW 05:06:38 10° N
Okean 1-7 Rocket 3.6 04:56:13 10° S 05:00:39 86° W 05:05:11 10° N
Cosmos 44 4.0 04:58:00 10° WNW 05:01:40 26° WSW 05:05:15 10° S
Cosmos 1943 Rocket 3.1 04:57:25 10° NNW 05:02:56 50° NE 05:08:26 10° SE
Cosmos 2278 Rocket 3.1 04:58:24 10° NW 05:03:04 27° WSW 05:07:43 10° SSW
Cosmos 1726 2.0 04:59:52 10° NNW 05:03:30 66° W 05:07:08 10° S
FENGYUN 3A 4.0 04:58:41 10° NNE 05:04:09 73° ESE 05:09:35 10° S
Helios 1A Rocket 3.0 05:00:26 10° NNE 05:04:37 90° SSE 05:08:47 10° SSW
Cosmos 1674 3.4 05:01:48 10° S 05:05:26 56° E 05:09:06 10° NNE
Cosmos 2333 Rocket 2.8 05:01:02 10° WSW 05:06:16 37° NW 05:11:34 10° NNE
ASTEX 1 3.8 05:02:14 10° SSE 05:07:05 70° E 05:11:58 10° N
Nadezhda 3 Rocket 4.3 05:02:06 10° NNW 05:08:10 48° W 05:14:13 10° SSW
CENTAUR R/B 3.6 05:01:15 10° NW 05:08:39 43° WSW 05:16:38 10° S
PSLV R/B 4.1 05:05:57 10° N 05:09:30 41° WNW 05:12:59 10° SW
Cosmos 1953 3.3 05:06:44 10° NNW 05:10:07 26° W 05:13:29 10° SW
Cosmos 2341 Rocket 4.1 05:04:48 10° S 05:11:04 89° WNW 05:17:20 10° N
MOS 1-B 4.4 05:07:16 10° NNE 05:13:03 66° WNW 05:18:48 10° SSW
NOSS 2-2 (C) 4.1 05:09:30 10° WSW 05:13:09 40° NNW 05:17:34 10° NE
ATLAS 2AS CENTAUR R/B 3.1 05:05:48 10° SW 05:13:53 73° NW 05:21:53 10° NE
Cosmos 1437 Rocket 2.7 05:11:06 10° S 05:14:53 86° E 05:18:42 10° NNE
Cosmos 676 Rocket 4.0 05:10:45 10° SSW 05:16:03 85° WNW 05:21:21 10° NNE
Cosmos 1023 Rocket 4.5 05:10:55 10° SW 05:16:05 68° WNW 05:21:14 10° NNE
